This is the latest recevied weather packets stored in our database for station/object KE0TNI-13. If no packets are shown the sender has not sent any weather packets the latest 10 day(s).
| Time | Temp. | Humidity | Pressure | Rain* | Wind** | Luminosity | Snow |
|---|---|---|---|---|---|---|---|
| 1777697271 | -1.67° C | 77% | 1025.8 hPa | 0 mm | - | 0 W/m² | - |
| 1777696967 | -1.67° C | 77% | 1025.9 hPa | 0 mm | - | 0 W/m² | - |
| 1777696665 | -2.22° C | 77% | 1025.8 hPa | 0 mm | - | 0 W/m² | - |
| 1777696362 | -2.22° C | 76% | 1025.4 hPa | 0 mm | - | 0 W/m² | - |
| 1777696062 | -2.22° C | 78% | 1025.8 hPa | 0 mm | - | 0 W/m² | - |
| 1777695759 | -1.67° C | 76% | 1025.8 hPa | 0 mm | - | 0 W/m² | - |
| 1777695457 | -1.67° C | 77% | 1025.5 hPa | 0 mm | - | 0 W/m² | - |
| 1777695154 | -1.67° C | 77% | 1025.4 hPa | 0 mm | - | 0 W/m² | - |
| 1777694851 | -1.67° C | 77% | 1025.7 hPa | 0 mm | - | 0 W/m² | - |
| 1777694548 | -1.67° C | 77% | 1025.5 hPa | 0 mm | - | 0 W/m² | - |
| 1777694244 | -1.67° C | 76% | 1025.4 hPa | 0 mm | - | 0 W/m² | - |
| 1777693941 | -1.67° C | 77% | 1025.3 hPa | 0 mm | - | 0 W/m² | - |
| 1777693638 | -1.67° C | 76% | 1025.2 hPa | 0 mm | - | 0 W/m² | - |
| 1777693336 | -1.67° C | 80% | 1025.4 hPa | 0 mm | - | 0 W/m² | - |
| 1777693034 | -1.67° C | 78% | 1025.3 hPa | 0 mm | - | 0 W/m² | - |
| 1777692732 | -1.67° C | 78% | 1025.4 hPa | 0 mm | - | 0 W/m² | - |
| 1777692428 | -1.67° C | 78% | 1025 hPa | 0 mm | - | 0 W/m² | - |
| 1777692124 | -1.67° C | 77% | 1025 hPa | 0 mm | - | 0 W/m² | - |
| 1777691822 | -1.11° C | 78% | 1024.8 hPa | 0 mm | - | 0 W/m² | - |
| 1777691520 | -1.11° C | 75% | 1024.6 hPa | 0 mm | - | 0 W/m² | - |
| 1777691218 | -1.11° C | 77% | 1024.8 hPa | 0 mm | - | 0 W/m² | - |
| 1777690916 | -1.11° C | 77% | 1024.6 hPa | 0 mm | - | 0 W/m² | - |
| 1777690613 | -1.11° C | 75% | 1024.8 hPa | 0 mm | - | 0 W/m² | - |
| 1777690311 | -1.11° C | 75% | 1024.9 hPa | 0 mm | - | 0 W/m² | - |
| 1777690008 | -0.56° C | 72% | 1024.4 hPa | 0 mm | - | 0 W/m² | - |
* Rain latest hour (hover to see other rain measurements)
** Current wind speed in m/s (hover to see current wind gust speed)